Location: Newport
(44.6370°N, 124.0520°W)
Time: 07:45:28
(UTC-08:00)

OTV 5 (USA 277) - Pass Details

Date: 16 October 2017
Orbit: 404 x 417 km, 43.0° (Epoch: 07 September)

Event Time Altitude Azimuth Distance (km) Brightness Sun altitude
Rises 21:10:30 0° 276° (W) 2,357 ? -29.2°
Reaches altitude 10° 21:12:41 10° 268° (W) 1,492 ? -29.6°
Enters shadow 21:13:16 14° 264° (W) 1,274 ? -29.7°
